Location: *
(23.7167°N, 120.8500°E)
Time: 21:16:33
(UTC+00:00)

Daily predictions for brighter satellites

Satellite Brightness Start Highest point End
(mag) Time Altitude Azimuth Time Altitude Azimuth Time Altitude Azimuth
Milstar 3 Cent rocket 3.1 19:28:38 50° ESE 19:28:38 50° ESE 19:32:34 10° E
Cosmos 1844 Rocket 4.3 19:35:54 24° SSE 19:35:54 24° SSE 19:38:01 10° SSE
Milstar 3 3.1 19:32:55 58° S 19:33:16 58° SSE 19:39:48 10° E
SL-16 R/B 4.5 19:30:43 10° SSE 19:34:52 21° E 19:39:01 10° NE
ATLAS 2AS CENTAUR R/B 3.7 19:44:26 40° NNW 19:44:26 40° NNW 19:50:04 10° NNE
Cosmos 1140 Rocket 4.0 19:50:05 38° SSE 19:51:49 56° ESE 19:56:52 10° NNE
Cosmos 2278 Rocket 4.3 19:52:02 10° NNE 19:56:31 24° ENE 20:00:59 10° ESE
Cosmos 1844 3.7 20:02:47 66° SW 20:02:47 66° SW 20:07:55 10° S
BREEZE-M DEB (TANK) 4.3 20:03:18 51° NNW 20:03:18 51° NNW 20:14:57 10° NE
Meteor 1-4 Rocket 4.1 20:03:33 20° SSE 20:05:28 34° E 20:08:41 10° NNE
PAYLOAD A 3.8 20:03:53 10° NNE 20:08:49 88° WNW 20:13:58 10° SSW
Cosmos 1992 Rocket 3.8 20:09:11 72° WNW 20:09:33 77° WSW 20:14:44 10° S
Cosmos 2074 Rocket 3.8 20:09:26 10° S 20:15:40 73° W 20:21:53 10° N
NOSS 3-2 (A) 4.5 20:15:56 10° NNW 20:23:59 69° ENE 20:32:32 10° SE
Cosmos 2237 Rocket 3.0 20:26:43 32° NW 20:26:43 32° NW 20:30:47 10° N
Cosmos 1023 Rocket 4.4 20:24:19 37° SW 20:26:10 57° WNW 20:31:14 10° N
Centaur D-1AR AC-39 1.8 20:34:58 38° SW 20:36:09 63° S 20:41:38 10° E
NATO 3D Rocket 4.4 20:32:25 28° W 20:37:37 77° S 20:44:04 10° E
Cosmos 676 Rocket 4.0 20:32:52 10° SSW 20:38:05 60° WNW 20:43:17 10° N
Cosmos 2181 Rocket 4.3 20:32:31 10° NNW 20:38:18 40° W 20:44:01 10° SSW
MSX 4.4 20:35:10 10° N 20:40:12 33° WNW 20:42:31 24° WSW
Cosmos 1437 Rocket 3.8 20:39:17 10° SSE 20:42:56 46° E 20:46:34 10° NNE
GPS 2-17 Rocket1 3.3 20:43:46 30° WSW 20:45:37 54° S 20:49:51 10° ESE
Cosmos 2228 4.2 20:44:57 10° N 20:48:59 44° E 20:53:01 10° SSE
GPS 2-05 Rocket1 2.0 20:49:33 54° WNW 20:50:04 88° SSW 20:52:48 10° ESE
USA 234 3.8 20:44:24 10° SE 20:50:46 57° NE 20:57:08 10° NNW
ALOS 3.9 20:46:32 10° NNE 20:50:49 37° E 20:55:06 10° SSE
Delta 142 3.5 20:48:33 26° WNW 20:51:00 71° NNE 20:55:05 10° E
CZ-4B R/B 3.4 20:53:01 10° NNW 20:56:28 31° WNW 20:59:46 10° SW
Cosmos 921 Rocket 3.2 20:54:11 10° NNW 20:58:11 42° W 21:02:07 10° S
Okean O Rocket 2.8 20:54:49 10° NNE 20:59:01 46° E 21:03:11 10° S
PSLV R/B 3.6 20:55:38 10° N 20:59:15 58° WNW 21:02:53 10° SSW
CZ-2C R/B 3.2 20:55:01 10° NNW 20:59:29 30° WNW 21:03:53 10° SW
CZ-4B R/B 4.1 20:56:19 10° NNE 21:01:26 50° ESE 21:06:33 10° S
MOS 1-B 4.3 20:55:46 10° N 21:01:35 80° WNW 21:07:23 10° SSW
Cosmos 292 Rocket 3.9 21:00:10 10° NNW 21:04:48 51° WSW 21:09:28 10° S
Cosmos 1953 2.2 21:01:06 10° NNW 21:05:05 66° W 21:09:01 10° S
Cosmos 44 3.7 21:01:23 10° NNW 21:05:36 54° ENE 21:09:51 10° SE
Delta 7925 Rocket 3.7 21:01:27 18° W 21:06:13 70° N 21:11:18 10° ENE
Meteor PRIRODA 4.4 21:06:54 10° NNW 21:10:15 31° WNW 21:13:33 10° SW
SKYMED 2 4.4 21:07:51 10° SSE 21:12:04 53° ENE 21:16:17 10° N
Cosmos 1758 4.4 21:10:04 10° NW 21:13:19 24° W 21:16:36 10° SW
Cosmos 962 Rocket 4.5 21:07:32 10° SSW 21:13:43 67° W 21:19:59 10° N
CZ-3B R/B 4.4 21:09:00 10° SW 21:14:07 52° SE 21:33:36 10° ENE
Cosmos 1850 Rocket 3.9 21:11:03 10° SSW 21:16:14 75° WNW 21:21:24 10° N
SL-16 R/B 2.8 21:13:37 10° SW 21:18:38 33° WNW 21:23:43 10° N
Cosmos 1892 Rocket 4.2 21:16:16 10° SSW 21:20:18 34° W 21:24:19 10° NNW
Helios 1A Rocket 2.9 21:17:50 10° N 21:21:58 68° WNW 21:26:03 10° SSW
ATLAS 3B R/B 3.1 21:15:17 10° NNW 21:22:03 69° ENE 21:29:01 10° SE
RESURS DK-1 3.9 21:20:20 10° WSW 21:23:00 17° WNW 21:25:42 10° NNW
GP-B 3.4 21:23:25 10° SSW 21:27:38 44° W 21:31:52 10° NNW
Meteor 1-16 Rocket 4.1 21:25:40 10° NNW 21:30:57 68° W 21:36:22 10° S
FENGYUN 3A 3.7 21:26:02 10° N 21:31:28 78° WNW 21:36:52 10° SSW
CENTAUR R/B 3.3 21:25:56 10° NNW 21:34:29 87° WSW 21:43:10 10° SSE
GPS 2-14 Rocket1 3.8 21:31:29 10° WSW 21:34:52 31° SSW 21:38:13 10° SE
